Location: Azul
(36.7830°S, 59.8500°W)
Time: 19:14:56
(UTC-03:00)

ZACube-1 - Pass Details

Date: 27 October 2021
Orbit: 584 x 664 km, 97.6° (Epoch: 07 December)

Event Time Altitude Azimuth Distance (km) Brightness Sun altitude
Rises 04:39:18 0° 13° (NNE) 2,918 ? -15.6°
Reaches altitude 10° 04:41:28 10° 12° (NNE) 2,030 ? -15.2°
Maximum altitude 04:45:54 87° 285° (WNW) 663 ? -14.4°
Drops below altitude 10° 04:50:31 10° 192° (SSW) 2,101 ? -13.6°
Sets 04:52:47 0° 192° (SSW) 3,028 ? -13.2°
